Location: Jastrz?bniki
(50.3667°N, 20.3833°E)
Time: 10:06:47
(UTC+00:00)

MOZ.5/SAFIR/RUBIN 5/SL-8 - Pass Details

Date: 05 August 2024
Orbit: 672 x 698 km, 98.3° (Epoch: 06 September)

Event Time Altitude Azimuth Distance (km) Brightness Sun altitude
Exits shadow 00:31:41 39° 207° (SSW) 1,032 4.1 -18.7°
Maximum altitude 00:33:05 54° 260° (W) 842 4.0 -18.6°
Drops below altitude 10° 00:37:43 10° 337° (NNW) 2,160 6.9 -18.3°
Sets 00:40:02 0° 343° (NNW) 3,085 7.8 -18.1°
